Regional Weather Roundup
Issued by NWS

Home | Current Version | Previous Version | Graphics & Text | Print | Product List | Glossary On
Versions: 1 2 3 4 5 6 7 8 9 10 11 12 13 14 15 16 17 18 19 20 21 22 23 24 25 26 27 28 29 30 31 32 33 34 35 36 37 38 39 40 41 42 43 44 45 46 47 48 49 50
000
ASUS45 KBOI 220310
RWRID

IDAHO REGIONAL WEATHER ROUNDUP
NATIONAL WEATHER SERVICE BOISE ID
800 PM MST TUE FEB 21 2017

NOTE: "FAIR" INDICATES FEW OR NO CLOUDS BELOW 12000 FEET
WITH NO SIGNIFICANT WEATHER AND/OR OBSTRUCTIONS TO VISIBILITY

IDZ012-014-220400-
SOUTHWEST IDAHO


CITY           SKY/WX    TMP DP  RH WIND       PRES   REMARKS
BOISE          CLOUDY    45  27  49 W15G31    30.01R
CALDWELL       CLOUDY    45  31  58 S10       30.01R
MOUNTAIN HOME  PTCLDY    41  29  62 W8        30.00R
$$

IDZ016-017-220400-
SOUTHCENTRAL IDAHO


CITY           SKY/WX    TMP DP  RH WIND       PRES   REMARKS
BURLEY         CLOUDY    41  30  65 SW9       30.00S
JEROME           N/A    N/A N/A N/A MISG      30.00R
TWIN FALLS     CLOUDY    37  28  70 S9        30.02R WCI  30
$$

IDZ019>023-220400-
SOUTHEAST IDAHO


CITY           SKY/WX    TMP DP  RH WIND       PRES   REMARKS
IDAHO FALLS    PTCLDY    35  31  85 SW16      29.93R WCI  25
POCATELLO      CLOUDY    38  30  73 SW15      29.98S WCI  29
REXBURG        CLOUDY    35  29  78 SW18G26   29.90R WCI  24
$$

IDZ006-010-011-018-031-032-220400-
CENTRAL IDAHO MOUNTAINS


CITY           SKY/WX    TMP DP  RH WIND       PRES   REMARKS
MCCALL         FLURRIES  33  24  69 S9        29.90R WCI  25
HAILEY         PTCLDY    32  28  86 SW5       29.94F WCI  27
STANLEY          N/A     30  16  56 W7G20     29.90S WCI  23
SALMON         CLOUDY    39  25  56 SW14      29.82S WCI  31
CHALLIS        MOCLDY    34  22  61 VRB6      29.87R WCI  29
$$

IDZ002-004-006-007-026-220400-
NORTHERN IDAHO


CITY           SKY/WX    TMP DP  RH WIND       PRES   REMARKS
LEWISTON       LGT RAIN  39  35  86 NE5       29.96R
LOWELL           N/A     35  33  92 CALM      29.98R
COEUR D`ALENE  LGT RAIN  33  32  96 SW10      29.90R WCI  25
MULLAN PASS    SNOW      25  25 100 VRB6      29.76R VSB 1/2 WCI  18
$$



USA.gov is the U.S. government's official web portal to all federal, state and local government web resources and services.